Overview Statistics Trail Chart Weather Telemetry Raw packets
 

This is the latest recevied weather packets stored in our database for station/object N4DWK. If no packets are shown the sender has not sent any weather packets the latest 10 day(s).

<< 91 92 93 94 95 96 97 >>
Time Temp. Humidity Pressure Rain* Wind** Luminosity Snow
1787944208 32.78° C 62% 1015.3 hPa 0 mm - 540 W/m² -
1787943908 33.33° C 64% 1015.2 hPa 0 mm - 555 W/m² -
1787943608 33.89° C 61% 1015.3 hPa 0 mm - 580 W/m² -
1787943307 33.33° C 61% 1015.2 hPa 0 mm - 563 W/m² -
1787943007 33.33° C 62% 1015.3 hPa 0 mm - 564 W/m² -
1787942707 32.78° C 64% 1015.4 hPa 0 mm - 582 W/m² -
1787942407 32.78° C 63% 1015.4 hPa 0 mm - 599 W/m² -
1787942107 32.78° C 61% 1015.4 hPa 0 mm - 585 W/m² -
1787941808 33.33° C 59% 1015.5 hPa 0 mm - 584 W/m² -
1787941507 32.78° C 63% 1015.5 hPa 0 mm - 592 W/m² -
1787941207 32.78° C 62% 1015.6 hPa 0 mm - 608 W/m² -
1787940914 32.78° C 62% 1015.7 hPa 0 mm - 613 W/m² -
1787940607 32.78° C 62% 1015.7 hPa 0 mm - 610 W/m² -
1787940307 32.22° C 63% 1015.7 hPa 0 mm - 608 W/m² -
1787940008 32.22° C 62% 1015.8 hPa 0 mm - 606 W/m² -
1787939707 32.22° C 64% 1015.9 hPa 0 mm - 636 W/m² -
1787939407 32.22° C 64% 1015.9 hPa 0 mm - 612 W/m² -
1787939107 31.67° C 64% 1015.9 hPa 0 mm - 612 W/m² -
1787938807 31.67° C 64% 1016 hPa 0 mm - 610 W/m² -
1787938507 31.67° C 66% 1016 hPa 0 mm - 603 W/m² -
1787938208 31.67° C 65% 1016 hPa 0 mm - 598 W/m² -
1787937908 31.11° C 66% 1016 hPa 0 mm - 594 W/m² -
1787937608 31.11° C 67% 1016.1 hPa 0 mm - 596 W/m² -
1787937307 31.11° C 67% 1016 hPa 0 mm - 594 W/m² -
1787937008 31.11° C 66% 1016 hPa 0 mm - 594 W/m² -

* Rain latest hour (hover to see other rain measurements)
** Current wind speed in m/s (hover to see current wind gust speed)